Temperature
13 13 13 13 13 13 13 13 13 13 13 13 13 13 13 12 13 12 12 12 13 13 13 13 13 13 13 13 13 13 13 13 13 13 13 13 13 13 13 12 12 12 12
13 13 13 13 12 12 12 12 12 13 13 12 12 12 12 12 12 12 12 12 12 12 12 12 12 12 12 12 12 12 12 13 13 13 13 13 12 12 12 12 12 12 12
12 12 12 12 12 12 12 12 12 12 12 12 12 12 12 12 12 12 12 12 12 12 12 12 12 12 12 12 12 12 12 12 12 12 12 12 12 12 12 12 12 12 12
11 11 11 11 12 12 11 12 12 12 12 12 12 12 11 11 11 11 11 11 12 12 12 12 12 12 12 12 12 12 12 12 12 12 12 12 12 12 12 12 12 12 12
11 11 11 11 11 11 11 11 11 11 11 11 11 11 11 11 11 11 11 11 11 11 11 11 11 11 11 11 11 11 11 11 11 11 11 11 11 11 11 12 12 12 12
10 10 10 10 10 10 11 11 11 11 11 11 11 11 10 10 10 11 11 11 11 11 11 10 11 11 10 11 11 11 11 11 11 11 11 11 11 11 11 11 11 11 11
10 10 10 10 10 10 10 10 10 10 10 10 10 10 10 10 10 10 10 10 10 10 10 10 10 10 10 10 10 10 10 10 10 10 10 10 10 11 11 11 11 11 11
9 9 9 9 10 9 10 10 10 10 10 10 10 9 10 10 10 10 10 10 9 9 9 9 9 9 9 9 9 9 10 10 10 10 10 10 10 10 10 10 10 10 10
9 9 9 9 9 9 9 9 9 9 9 9 9 9 9 9 9 9 9 9 9 9 9 9 8 8 8 8 9 9 9 9 9 9 9 9 9 9 9 9 10 10 10
9 9 8 8 8 8 8 8 8 8 8 8 8 8 8 8 8 8 8 8 8 8 8 8 8 8 7 8 8 8 8 8 8 8 8 8 8 8 9 9 9 9 9
8 8 8 8 8 8 8 8 8 8 8 8 8 7 7 7 7 7 7 8 7 7 7 7 7 7 7 7 7 7 7 7 7 7 7 7 7 8 8 8 8 8 9
8 8 8 8 8 8 8 8 8 8 7 7 7 7 7 6 6 6 6 6 6 6 6 6 6 6 6 6 6 6 6 6 7 7 7 7 7 7 7 7 7 8 8
8 7 7 7 7 7 7 7 7 7 7 7 6 6 6 6 6 5 5 5 5 5 5 5 5 5 5 5 5 5 6 6 6 6 6 6 6 6 6 7 7 7 7
7 7 7 7 7 7 7 7 6 6 6 6 6 6 6 5 5 5 5 4 4 4 5 4 4 4 4 4 5 5 5 5 5 5 5 6 6 6 6 6 6 6 6
7 7 7 6 6 6 6 6 6 6 6 6 5 5 5 5 5 4 4 4 3 3 3 4 4 4 4 4 4 4 4 4 4 4 4 5 5 5 5 5 5 5 5
6 6 6 6 6 6 6 6 5 5 5 5 5 5 5 4 4 4 4 3 3 3 2 3 3 3 3 3 3 3 3 3 3 3 3 4 4 4 4 4 4 4 4
6 6 6 6 5 5 5 5 5 5 5 5 4 4 4 4 4 3 3 3 3 3 2 2 2 2 2 2 2 2 2 2 2 2 2 2 3 3 3 3 3 3 4
5 5 5 5 5 5 5 5 4 4 4 4 4 4 4 3 3 3 3 3 2 2 2 2 2 2 2 1 1 2 2 2 1 1 1 2 2 2 2 2 2 2 3
5 5 5 5 5 4 4 4 4 4 4 4 3 3 3 3 3 2 2 2 2 2 1 1 1 1 1 1 1 1 1 1 1 1 1 1 1 1 1 1 1 1 1
5 4 4 4 4 4 4 4 4 3 3 3 3 3 2 2 2 2 2 1 1 1 1 0 0 0 0 0 0 0 0 0 0 0 0 -0 -0 -0 0 0 0 0 0
4 4 4 4 4 4 3 3 3 3 3 3 2 2 2 2 1 1 1 1 1 0 -0 -0 -0 -0 -0 -0 -1 -1 -1 -1 -0 -1 -1 -1 -1 -1 -0 -1 -0 -1 -1
4 4 4 4 3 3 3 3 2 2 2 2 2 2 1 1 1 1 0 0 -0 -1 -1 -1 -1 -1 -1 -1 -2 -2 -2 -2 -2 -2 -2 -1 -1 -1 -1 -1 -1 -1 -1
3 3 3 3 3 3 2 2 2 2 2 1 1 1 1 1 0 -0 -0 -1 -1 -1 -2 -2 -2 -2 -2 -2 -3 -3 -3 -3 -3 -3 -3 -2 -2 -2 -2 -2 -2 -2 -2
3 3 3 3 3 2 2 2 1 1 1 1 1 1 0 0 -0 -1 -1 -1 -1 -2 -2 -2 -2 -3 -3 -3 -3 -4 -4 -4 -3 -3 -4 -3 -2 -2 -2 -2 -2 -2 -2
3 3 3 2 2 2 2 1 1 1 1 1 0 0 -0 -1 -1 -1 -2 -2 -2 -2 -2 -3 -3 -3 -3 -4 -4 -4 -4 -4 -4 -4 -4 -4 -4 -3 -2 -2 -2 -3 -3
2 2 2 2 2 2 1 1 0 0 0 0 -0 -0 -1 -1 -1 -2 -2 -2 -2 -2 -3 -3 -3 -4 -4 -4 -4 -5 -5 -5 -5 -5 -5 -5 -5 -5 -5 -3 -3 -3 -4
Wind_Speed
3 4 4 5 5 5 4 4 4 4 5 5 6 5 5 5 6 5 6 7 7 8 9 9 9 8 9 10 10 11 12 12 13 14 14 14 14 15 15 15 15 15 14
5 4 4 4 5 5 5 4 4 4 3 4 4 5 5 5 5 4 5 5 5 6 7 8 8 8 8 8 9 9 9 11 12 13 13 14 14 14 15 15 15 15 15
6 5 3 3 5 6 6 4 5 4 3 4 5 5 4 4 4 3 3 3 4 5 6 6 6 6 7 7 8 8 8 9 10 11 12 12 13 14 15 16 16 15 15
7 6 3 3 7 6 5 3 3 3 4 4 4 4 3 3 3 3 2 2 3 3 4 4 4 5 6 6 7 8 7 8 9 9 10 10 11 11 12 14 15 15 16
7 6 4 5 6 5 4 3 3 2 3 5 4 3 3 2 2 3 3 3 3 3 3 4 4 5 6 6 7 8 8 8 7 7 7 8 9 10 11 12 13 13 14
7 6 5 6 6 3 3 4 4 3 2 4 4 3 2 2 2 2 3 3 4 5 5 5 5 5 7 7 8 8 9 9 8 7 7 7 7 8 9 10 11 12 13
6 6 4 4 4 3 4 4 3 3 3 3 3 3 3 2 2 2 3 3 5 6 7 7 6 6 6 8 9 10 10 10 10 8 7 7 7 7 8 8 9 10 11
6 5 4 3 3 3 4 4 4 2 3 3 2 2 3 3 3 3 3 4 5 6 6 8 8 8 7 7 9 11 11 11 11 10 9 7 7 7 8 9 10 10 10
4 5 4 3 3 2 2 3 3 3 2 3 2 1 1 2 3 3 3 4 5 5 5 6 8 9 9 9 9 11 12 12 12 11 11 10 9 8 8 9 10 10 10
3 4 4 3 3 2 2 2 3 2 1 2 2 2 1 0 1 3 3 3 5 5 5 5 6 8 10 9 11 14 15 13 12 11 11 11 10 10 10 10 10 10 10
2 3 3 3 2 2 2 2 2 2 1 1 1 2 2 2 1 1 3 3 3 3 4 4 5 7 10 10 10 14 15 15 14 13 11 11 11 12 12 11 11 11 11
1 2 2 2 2 1 1 1 2 2 2 2 1 1 1 1 1 1 2 3 3 2 3 3 4 6 9 11 12 15 15 15 15 14 13 13 13 13 14 13 12 12 11
1 2 0 1 1 1 1 1 2 2 2 2 1 1 1 1 1 1 2 2 2 2 1 2 3 6 8 10 11 15 14 15 15 15 14 14 14 14 14 14 12 12 12
3 2 1 1 1 1 1 1 1 1 1 1 1 1 1 1 1 1 1 1 2 2 1 1 2 5 7 9 11 13 12 14 14 14 13 13 13 13 13 13 13 13 12
2 2 2 1 1 1 0 0 0 1 1 1 1 1 0 1 1 1 1 1 2 2 2 2 2 3 7 8 10 11 11 12 13 12 12 12 12 12 12 12 12 13 13
3 2 2 2 2 1 1 0 0 0 0 0 0 0 1 1 1 1 1 1 1 2 2 1 1 3 5 7 10 11 10 11 12 12 12 12 12 12 12 12 12 12 13
3 4 3 3 3 2 2 1 1 1 1 1 1 0 0 1 1 1 1 1 0 1 3 2 1 2 3 4 7 9 9 9 10 12 12 11 12 12 13 13 12 12 12
4 4 4 4 4 3 3 3 3 2 2 2 2 1 1 0 0 1 1 1 1 1 2 3 2 2 2 3 4 5 7 8 9 11 11 11 11 12 12 13 12 13 13
4 4 4 5 5 4 4 4 4 3 3 3 3 2 2 1 1 1 1 1 1 1 1 2 3 2 2 3 4 5 5 5 8 10 10 11 12 12 12 13 12 13 13
5 5 5 5 5 5 5 4 4 4 4 3 3 3 3 3 3 3 2 2 2 1 1 2 3 2 2 3 2 4 5 4 5 7 9 11 12 12 12 13 12 12 13
5 5 5 5 5 5 5 5 5 5 5 4 4 4 4 5 5 4 3 3 2 2 2 2 3 3 2 2 3 3 5 5 5 3 5 6 7 7 9 11 12 12 13
5 5 5 6 6 6 8 10 7 5 5 5 5 4 4 5 6 6 6 6 4 3 3 3 3 3 3 3 3 4 4 4 4 3 4 6 4 5 6 8 12 14 14
5 6 6 6 7 8 11 10 10 5 5 5 5 5 4 4 5 4 5 6 6 7 6 4 4 5 4 4 3 4 4 4 5 4 4 6 4 5 6 11 14 14 13
5 6 6 7 7 8 11 11 10 6 5 6 6 6 6 5 5 5 4 4 4 5 5 4 5 5 5 5 4 4 4 5 5 4 3 4 4 4 7 10 13 11 12
6 6 5 6 7 8 11 11 10 4 5 6 6 6 6 6 9 9 5 5 5 5 7 8 8 8 9 8 5 2 2 3 5 4 2 2 3 5 6 5 7 10 12
6 6 6 6 7 8 11 12 11 4 5 6 5 6 9 9 10 10 6 6 6 6 4 4 5 6 5 6 6 3 3 3 3 4 2 2 3 4 5 3 3 6 10
Wind_Direction
27 19 8 4 358 356 351 340 336 330 326 322 318 310 302 301 300 292 286 291 291 289 287 284 280 274 268 262 260 258 254 252 251 250 248 245 245 244 243 244 244 243 243
34 24 12 6 360 352 343 334 327 317 311 316 314 311 302 301 298 297 293 298 304 305 301 295 290 287 285 277 269 272 271 266 259 254 251 249 248 246 244 245 244 245 245
39 32 20 4 355 351 348 346 342 333 328 328 322 315 309 308 311 313 310 306 306 310 311 309 308 306 305 301 293 284 278 278 276 267 260 256 253 252 249 248 247 246 246
41 38 24 3 359 2 359 345 347 337 333 329 318 315 318 321 329 338 349 343 333 326 323 332 335 336 334 328 321 314 303 288 285 285 278 270 264 259 256 255 252 250 249
37 38 27 8 7 9 3 350 349 337 325 328 318 317 329 338 338 4 16 18 19 14 2 357 1 356 349 344 340 336 331 315 299 295 291 285 281 275 267 260 257 254 253
35 38 30 16 15 12 1 353 339 337 316 319 315 322 326 335 353 16 11 26 28 23 16 13 9 357 357 350 348 345 342 336 325 311 299 288 287 287 286 280 268 263 261
33 39 28 19 19 16 0 350 343 341 342 343 346 336 331 346 26 28 23 28 29 29 27 26 25 19 8 3 4 0 351 347 342 325 303 295 294 292 290 292 290 279 272
30 33 28 18 16 14 12 7 4 349 344 3 9 350 335 334 354 13 24 33 26 32 31 32 33 31 25 21 15 11 3 354 344 341 333 314 304 303 301 298 293 293 287
33 34 29 27 19 22 6 355 4 10 342 332 6 32 13 294 316 336 20 31 25 26 19 33 40 36 32 25 16 10 5 355 351 348 344 343 340 330 323 316 310 305 302
22 25 28 27 24 18 8 355 15 3 358 338 336 356 336 276 309 316 337 16 22 27 25 27 33 35 32 26 22 19 12 3 356 348 344 344 343 343 340 338 335 333 328
5 15 23 24 23 15 10 16 13 18 22 357 339 338 350 3 9 278 301 331 357 10 19 23 33 34 30 25 18 17 14 10 5 357 351 353 353 348 343 340 339 338 333
328 350 15 24 16 10 5 9 18 32 32 34 19 18 21 358 338 316 281 304 317 336 10 26 35 34 28 21 17 16 14 12 7 5 3 3 1 357 355 352 348 348 344
265 281 333 2 346 341 357 22 43 33 30 47 39 15 17 343 300 276 262 284 298 302 335 31 36 34 26 17 10 13 12 12 10 9 10 8 4 359 356 352 349 349 346
237 234 228 236 276 333 2 30 39 24 40 46 48 46 29 344 333 282 234 245 289 298 314 332 10 28 17 11 9 9 3 6 8 8 9 8 5 0 357 355 354 351 347
234 222 220 225 243 281 333 33 40 357 27 30 26 40 30 338 349 324 299 213 219 263 285 317 339 357 4 5 359 0 352 357 4 4 4 7 3 358 355 355 352 351 350
228 220 226 225 235 247 250 188 279 287 51 319 303 44 15 340 355 348 327 302 214 209 250 294 308 329 351 355 353 351 345 353 355 356 358 3 2 357 354 351 349 347 346
223 219 218 219 224 228 218 199 222 233 219 270 294 157 318 331 3 341 345 360 357 191 236 279 298 331 343 341 341 343 343 343 342 350 352 356 356 358 358 353 348 345 346
224 221 217 218 224 224 215 207 216 217 214 225 240 227 264 274 331 312 321 327 289 232 210 265 292 314 311 319 327 333 340 342 337 341 346 349 350 353 352 350 351 350 346
226 226 218 220 225 224 220 217 211 215 217 221 224 220 235 220 249 255 251 261 270 273 212 240 280 287 294 310 323 323 327 331 332 334 339 344 346 347 346 344 344 344 342
222 227 225 226 226 224 222 220 214 215 217 223 223 223 226 219 229 234 245 244 233 235 235 247 272 284 286 296 316 317 322 324 322 326 332 334 335 337 337 337 337 337 336
226 226 227 231 229 226 225 218 216 217 217 225 230 231 232 232 235 235 236 227 215 220 233 249 270 283 291 308 311 303 311 315 308 311 319 319 320 320 323 328 331 331 331
229 225 228 229 232 234 235 233 225 218 219 223 233 240 243 247 250 256 259 253 232 220 225 234 253 264 272 272 281 298 305 320 312 312 319 307 306 303 311 317 321 323 324
227 230 233 229 232 236 239 240 235 223 221 227 230 235 242 240 250 247 261 270 269 261 249 231 239 247 254 253 264 279 280 283 281 291 308 294 298 295 301 309 314 316 318
228 232 235 233 234 239 240 241 239 228 223 228 228 228 231 239 240 235 234 245 252 260 259 248 235 242 244 243 239 255 264 279 273 274 274 282 296 290 300 301 304 312 323
233 233 233 231 233 243 241 242 241 224 229 236 235 230 228 234 247 249 239 239 251 261 267 262 260 264 271 276 275 271 283 299 297 290 263 272 296 304 298 287 294 312 323
236 236 239 233 232 239 242 242 239 222 230 240 241 238 241 241 248 249 234 230 244 251 249 262 265 273 278 281 280 252 238 259 281 286 271 285 296 324 312 287 276 296 305
Height
1532 1531 1530 1529 1529 1528 1527 1526 1526 1525 1524 1523 1523 1522 1521 1521 1520 1520 1520 1520 1520 1520 1520 1520 1520 1520 1520 1520 1520 1520 1520 1520 1521 1521 1521 1522 1522 1522 1522 1523 1523 1523 1523
1530 1529 1528 1528 1527 1526 1525 1524 1523 1523 1522 1521 1520 1519 1519 1518 1518 1517 1517 1517 1517 1517 1517 1516 1516 1516 1516 1516 1516 1516 1516 1516 1516 1517 1517 1517 1518 1518 1518 1519 1519 1519 1520
1528 1527 1527 1526 1525 1524 1523 1522 1521 1520 1519 1519 1518 1517 1516 1516 1515 1515 1515 1514 1514 1514 1513 1513 1513 1513 1513 1512 1512 1512 1512 1512 1512 1512 1512 1513 1513 1514 1514 1514 1515 1515 1516
1527 1526 1525 1524 1523 1522 1521 1520 1519 1518 1517 1516 1515 1514 1514 1513 1513 1512 1512 1511 1511 1510 1510 1510 1509 1509 1509 1509 1508 1508 1508 1508 1508 1508 1507 1508 1508 1509 1509 1510 1510 1511 1511
1525 1524 1523 1522 1521 1521 1520 1518 1517 1516 1515 1514 1513 1512 1511 1511 1510 1510 1509 1508 1508 1507 1507 1507 1506 1506 1505 1505 1505 1504 1504 1504 1503 1503 1503 1503 1504 1504 1505 1505 1505 1505 1506
1524 1523 1522 1521 1520 1519 1518 1517 1515 1514 1513 1512 1511 1510 1509 1509 1508 1507 1507 1506 1505 1505 1504 1503 1503 1502 1502 1501 1501 1500 1500 1500 1499 1498 1498 1499 1499 1499 1499 1500 1500 1500 1500
1522 1521 1520 1519 1518 1517 1516 1515 1513 1512 1511 1510 1509 1508 1507 1506 1506 1505 1505 1504 1503 1502 1501 1500 1500 1499 1498 1498 1497 1496 1496 1496 1495 1495 1494 1494 1494 1494 1494 1494 1494 1494 1495
1521 1520 1519 1517 1516 1515 1514 1513 1512 1510 1509 1508 1507 1506 1505 1505 1504 1503 1503 1502 1501 1500 1499 1498 1497 1496 1495 1495 1494 1493 1492 1491 1491 1490 1490 1489 1489 1489 1489 1489 1489 1489 1489
1519 1518 1517 1516 1514 1513 1512 1511 1510 1509 1508 1507 1506 1506 1505 1503 1502 1502 1501 1500 1499 1497 1496 1495 1494 1493 1492 1491 1490 1489 1488 1488 1487 1486 1485 1485 1484 1484 1483 1484 1483 1483 1483
1517 1516 1515 1514 1513 1511 1510 1509 1508 1507 1506 1505 1504 1504 1504 1502 1502 1500 1499 1498 1497 1495 1494 1493 1492 1491 1489 1488 1487 1486 1485 1484 1483 1482 1481 1480 1480 1479 1479 1478 1478 1478 1477
1515 1514 1513 1512 1511 1510 1508 1507 1506 1505 1504 1503 1502 1502 1501 1500 1499 1499 1497 1495 1494 1493 1492 1491 1489 1488 1487 1485 1484 1482 1481 1480 1479 1478 1476 1476 1475 1474 1474 1473 1473 1473 1472
1513 1512 1511 1510 1509 1508 1507 1506 1504 1503 1502 1501 1500 1499 1499 1498 1497 1496 1495 1493 1491 1491 1489 1488 1487 1485 1484 1483 1481 1479 1478 1477 1475 1474 1472 1471 1471 1470 1469 1468 1468 1467 1467
1510 1510 1509 1508 1506 1505 1504 1503 1502 1501 1500 1499 1498 1497 1496 1495 1495 1494 1493 1491 1489 1488 1487 1486 1484 1483 1482 1480 1478 1477 1475 1473 1472 1470 1469 1467 1466 1465 1464 1463 1463 1462 1462
1508 1507 1506 1505 1504 1503 1502 1501 1500 1499 1498 1497 1496 1495 1494 1493 1492 1491 1491 1489 1487 1485 1484 1483 1482 1481 1479 1477 1476 1474 1472 1471 1469 1467 1465 1464 1463 1461 1460 1459 1458 1457 1456
1505 1504 1503 1502 1501 1500 1499 1498 1497 1496 1495 1494 1493 1492 1491 1490 1489 1489 1488 1487 1486 1483 1481 1480 1479 1478 1476 1475 1473 1471 1469 1468 1466 1464 1462 1460 1459 1457 1456 1455 1454 1453 1451
1502 1501 1500 1499 1498 1497 1496 1495 1494 1493 1492 1491 1490 1489 1488 1487 1486 1485 1484 1483 1482 1482 1479 1477 1476 1475 1473 1472 1470 1468 1466 1464 1463 1461 1459 1457 1455 1453 1451 1450 1449 1448 1447
1498 1497 1497 1496 1495 1494 1493 1492 1491 1490 1489 1488 1487 1486 1485 1484 1483 1482 1481 1480 1479 1478 1476 1474 1473 1471 1470 1468 1466 1465 1463 1461 1459 1457 1455 1453 1451 1449 1447 1446 1444 1443 1442
1495 1494 1493 1492 1491 1490 1490 1489 1488 1487 1486 1485 1484 1483 1482 1481 1480 1479 1478 1477 1476 1474 1473 1470 1469 1468 1466 1464 1462 1461 1459 1457 1456 1454 1452 1450 1447 1445 1444 1442 1440 1438 1437
1491 1490 1489 1488 1487 1487 1486 1485 1484 1483 1482 1481 1480 1479 1478 1477 1476 1475 1474 1473 1472 1471 1469 1467 1465 1464 1462 1461 1459 1457 1456 1454 1452 1450 1448 1446 1444 1442 1440 1438 1435 1434 1433
1486 1485 1484 1484 1483 1482 1482 1481 1480 1479 1478 1478 1477 1476 1475 1474 1473 1472 1470 1469 1468 1467 1465 1464 1462 1460 1459 1457 1455 1453 1451 1450 1448 1447 1445 1443 1440 1438 1436 1434 1431 1429 1428
1481 1481 1480 1479 1478 1478 1477 1476 1476 1475 1474 1473 1472 1472 1471 1470 1469 1468 1467 1465 1464 1463 1461 1460 1458 1457 1455 1453 1452 1450 1448 1446 1444 1442 1440 1439 1436 1434 1432 1430 1427 1425 1424
1476 1476 1475 1474 1473 1473 1473 1472 1471 1471 1470 1469 1468 1467 1466 1466 1464 1463 1462 1461 1460 1459 1457 1456 1454 1453 1451 1450 1448 1447 1445 1442 1440 1439 1436 1434 1433 1430 1428 1426 1423 1422 1420
1471 1470 1470 1469 1468 1468 1468 1467 1467 1466 1465 1464 1463 1463 1462 1461 1460 1459 1458 1457 1456 1454 1454 1452 1450 1449 1447 1446 1445 1443 1441 1439 1437 1435 1432 1429 1428 1426 1424 1422 1420 1418 1416
1466 1465 1465 1464 1463 1463 1463 1462 1462 1461 1460 1459 1459 1458 1457 1456 1455 1454 1453 1451 1451 1450 1449 1448 1446 1445 1444 1442 1441 1440 1438 1435 1433 1431 1429 1425 1422 1421 1419 1417 1416 1414 1412
1461 1460 1459 1458 1458 1458 1458 1457 1456 1455 1454 1454 1453 1453 1452 1451 1450 1449 1448 1446 1445 1445 1444 1443 1442 1441 1440 1438 1437 1436 1434 1431 1428 1426 1425 1422 1418 1415 1413 1412 1411 1409 1407
1455 1454 1453 1453 1452 1452 1452 1451 1451 1450 1449 1448 1448 1447 1446 1445 1445 1444 1443 1441 1440 1439 1439 1438 1437 1436 1435 1434 1433 1431 1429 1427 1425 1422 1420 1418 1415 1412 1407 1405 1405 1404 1402